Weather History for Middletown, PA

Change the Weather History Date:

Tuesday, January 7, 2014

  Actual Average Record
Temperature  
Mean Temperature 5 °F 30 °F  
Max Temperature 10 °F 37 °F 65 °F (2008)
Min Temperature 0 °F 23 °F 0 °F (2014)
Degree Days  
Heating Degree Days 60 35  
Month to date heating degree days 318 242  
Since 1 July heating degree days 2319 2243  
Cooling Degree Days 0 0  
Month to date cooling degree days 0 0  
Year to date cooling degree days 0 0  
Moisture  
Dew Point -9 °F    
Average Humidity 53    
Maximum Humidity 59    
Minimum Humidity 46    
Precipitation  
Precipitation 0.00 in 0.09 in 1.64 in (1996)
Month to date precipitation 1.04 0.64  
Year to date precipitation 1.04 0.64  
Snow  
Snow 0.00 in - - ()
Month to date snowfall 5.5  
Since 1 July snowfall 14.7  
Snow Depth 0.00 in    
Sea Level Pressure  
Sea Level Pressure 30.30 in    
Wind  
Wind Speed 15 mph (West)    
Max Wind Speed 29 mph    
Max Gust Speed 36 mph    
Visibility 10 miles    
Events      
T = Trace of Precipitation, MM = Missing Value Source: NWS Daily Summary

Daily Weather History Graph

Daily Weather History Graph

Search for Another Location

Airport:

Trip Planner

Search our weather history database for the weather conditions in past years. The results will help you decide how hot, cold, wet, or windy it might be!

Date:

Astronomy

Jan. 07, 2014 Rise Set
Actual Time 7:29 AM EST 4:57 PM EST
Civil Twilight 6:59 AM EST 5:27 PM EST
Nautical Twilight 6:25 AM EST 6:01 PM EST
Astronomical Twilight 5:52 AM EST 6:34 PM EST
Moon 11:16 AM EST (1/7) No Moon Set
Length of Visible Light 10h 28m
Length of Day
9h 27m
Waxing Crescent, 45% of the Moon is Illuminated
Jan 7
Waxing Crescent
Jan 7
First Quarter
Jan 15
Full
Jan 24
Last Quarter
Jan 30
New

Hourly Weather History & Observations

Time (EST) Temp. Windchill Dew Point Humidity Pressure Visibility Wind Dir Wind Speed Gust Speed Precip Events Conditions
12:56 AM 5.0 °F -16.7 °F -9.9 °F 50% 30.06 in 10.0 mi West 23.0 mph 34.5 mph N/A   Partly Cloudy
1:56 AM 3.9 °F -16.1 °F -9.9 °F 53% 30.10 in 10.0 mi West 18.4 mph - N/A   Partly Cloudy
2:56 AM 1.9 °F -21.6 °F -11.0 °F 55% 30.13 in 10.0 mi WNW 25.3 mph 35.7 mph N/A   Partly Cloudy
3:56 AM 1.9 °F -19.8 °F -11.9 °F 52% 30.17 in 10.0 mi WNW 20.7 mph 31.1 mph N/A   Partly Cloudy
4:56 AM 1.0 °F -19.3 °F -11.9 °F 55% 30.19 in 10.0 mi West 17.3 mph 25.3 mph N/A   Partly Cloudy
5:56 AM 1.0 °F -16.6 °F -11.9 °F 55% 30.22 in 10.0 mi West 12.7 mph - N/A   Partly Cloudy
6:56 AM -0.0 °F -20.1 °F -11.9 °F 57% 30.25 in 10.0 mi West 16.1 mph 25.3 mph N/A   Scattered Clouds
7:56 AM -0.0 °F -19.4 °F -13.0 °F 54% 30.29 in 10.0 mi West 15.0 mph - N/A   Clear
8:56 AM 1.0 °F -17.3 °F -11.9 °F 55% 30.33 in 10.0 mi West 13.8 mph 23.0 mph N/A   Partly Cloudy
9:56 AM 1.9 °F -18.7 °F -11.9 °F 52% 30.36 in 10.0 mi West 18.4 mph 26.5 mph N/A   Scattered Clouds
10:56 AM 3.0 °F -16.7 °F -9.0 °F 57% 30.34 in 10.0 mi West 17.3 mph 25.3 mph N/A   Mostly Cloudy
11:56 AM 5.0 °F -11.6 °F -9.9 °F 50% 30.31 in 10.0 mi West 12.7 mph 23.0 mph N/A   Scattered Clouds
12:56 PM 7.0 °F -12.6 °F -8.0 °F 51% 30.30 in 10.0 mi WNW 19.6 mph 25.3 mph N/A   Partly Cloudy
1:56 PM 8.1 °F -8.4 °F -8.0 °F 48% 30.31 in 10.0 mi West 13.8 mph 28.8 mph N/A   Scattered Clouds
2:56 PM 10.0 °F -8.1 °F -5.1 °F 51% 30.31 in 10.0 mi WNW 18.4 mph 24.2 mph N/A   Scattered Clouds
3:56 PM 10.0 °F -7.6 °F -7.1 °F 46% 30.34 in 10.0 mi WNW 17.3 mph 25.3 mph N/A   Partly Cloudy
4:56 PM 9.0 °F -6.6 °F -7.1 °F 48% 30.34 in 10.0 mi West 12.7 mph - N/A   Clear
5:56 PM 9.0 °F -4.2 °F -7.1 °F 48% 30.35 in 10.0 mi West 9.2 mph 19.6 mph N/A   Clear
6:56 PM 10.0 °F -3.7 °F -6.0 °F 48% 30.37 in 10.0 mi West 10.4 mph 20.7 mph N/A   Clear
7:56 PM 9.0 °F -6.6 °F -6.0 °F 51% 30.40 in 10.0 mi West 12.7 mph - N/A   Clear
8:56 PM 9.0 °F -4.2 °F -5.1 °F 53% 30.41 in 10.0 mi West 9.2 mph - N/A   Clear
9:56 PM 9.0 °F -3.2 °F -5.1 °F 53% 30.43 in 10.0 mi West 8.1 mph - N/A   Clear
10:56 PM 9.0 °F -3.2 °F -5.1 °F 53% 30.44 in 10.0 mi West 8.1 mph - N/A   Clear
11:56 PM 9.0 °F -4.2 °F -5.1 °F 53% 30.45 in 10.0 mi West 9.2 mph - N/A   Clear